Location: ?????????
(44.2517°N, 135.2292°E)
Time: 03:52:20
(UTC+00:00)

Resurs 1-4 Rocket - Pass Details

Date: 19 May 2025
Orbit: 797 x 813 km, 98.8° (Epoch: 15 June)

Event Time Altitude Azimuth Distance (km) Brightness Sun altitude
Rises 18:12:06 0° 6° (N) 3,318 6.1 -11.7°
Reaches altitude 10° 18:14:36 10° 357° (N) 2,382 5.1 -11.4°
Maximum altitude 18:19:18 35° 294° (WNW) 1,283 3.0 -10.7°
Enters shadow 18:23:22 13° 234° (SW) 2,152 3.6 -10.2°
